Voltar ao catálogo

STARLINK-36177

AtivoComunicaçõesVLEO
NORAD 66932·PAYLOAD·🇺🇸 United States

Lançado Dec 7, 2025 de Vandenberg Space Force Base

Loading…

Próximas Passagens (próximas 24 horas)

TLE

AtualizadoSource: CelesTrak SupGP

Época: Sep 14, 2026, 21:04 UTC

1 66932C 25286H   26257.87826389  .00017164  00000+0  50696-3 0  2576
2 66932  53.1575 195.9618 0001305  97.5870 311.3416 15.34390972    11

Acompanhe STARLINK-36177 em tempo real com AllMySat

Download on the App Store